www.pogodaiklimat.ru

Погода и климат >> Архив погоды >> Хорватия >> Риека


ПОГОДА в Риеке

  • Прогноз погоды в Риеке
  • Монитор погоды в Риеке

АРХИВ ПОГОДЫ в Риеке

Время (UTC), дата Ветер
(напр.,м/с)
 
Видим.   Явления Облачность Т
(С)
Тd
(С)
f
(%)
Тe
(С)
Тes
(С)
Комфортность P
(гПа)
Po
(гПа)
Тmin
(С)
Tmax
(С)
R
(мм)
R24
(мм)
S
(см)
07 14.07 З 1 40 км 4/0
[Ac lent]
+21.6 +12.2 55 +24 +30 комфорт 1011.8 997.4
08 14.07 ЮЗ 1 40 км 8/0
[Ac As]
+23.1 +13.1 53 +26 +32 жарко 1011.8 997.4
09 14.07 Ю 1 40 км 8/4 1000 м
[Cu Sc Ac cuf]
+23.4 +12.1 49 +26 +32 жарко 1011.9 997.5
10 14.07 СЗ 1 40 км 8/4 1000 м
[Cu Sc Ac cuf]
+23.2 +11.8 49 +26 +32 жарко 1012.1 997.7
11 14.07 З 1 40 км слаб. дождь 9/8 1000 м
[Cu Sc Ac cuf]
+25.1 +11.9 44 +27 +29 жарко 1012.0 997.7
12 14.07 В 1 40 км в посл. час дождь 8/8 1000 м
[Cu Sc]
+25.3 +10.7 40 +26 +31 жарко 1011.7 997.4 0.2
13 14.07 ЮЗ 2 40 км 8/5 1000 м
[Cb calv Ci]
+27.1 +11.7 38 +28 +35 жарко 1011.3 997.1
14 14.07 ЮЗ 3 н/о н/о +27.1 +8.1 30 +27 +27 жарко 1011.3 997.0
15 14.07 З 2 н/о н/о +28.4 +10.2 32 +29 +29 жарко 1010.7 996.5
16 14.07 З 2 н/о н/о +26.9 +10.6 36 +28 +28 жарко 1010.6 996.3
17 14.07 С 1 н/о н/о +25.8 +10.9 39 +27 +27 жарко 1010.8 996.5
18 14.07 С 3 40 км 6/3 1000 м
[Cu Sc Ac lent Ci sp]
+24.3 +12.6 48 +26 +26 жарко 1010.4 996.1 +27.9 0.2
19 14.07 С 3 40 км 4/3 1000 м
[Sc diur, vesp Ac trans]
+22.1 +11.6 51 +24 +24 комфорт 1010.6 996.2
20 14.07 С 3 35 км 3/0
[Ac cuf]
+21.8 +12.2 54 +24 +24 комфорт 1010.8 996.4
21 14.07 В 1 н/о н/о +19.6 +10.9 57 +22 +22 комфорт 1011.8 997.2
00 15.07 В 2 н/о н/о +19.3 +11.9 62 +21 +21 комфорт 1012.0 997.3
03 15.07 СВ 1 35 км 1/1 1500 м
[Cu hum]
+17.8 +10.7 63 +19 +19 1011.0 996.4
04 15.07 СЗ 2 35 км 5/1 1500 м
[Cu hum Ac lent Ci fib]
+18.0 +11.0 64 +19 +19 1011.0 996.4
05 15.07 СЗ 1 35 км 4/1 1500 м
[Cu hum Ac lent Ci fib]
+18.7 +11.4 63 +20 +22 1011.2 996.6
06 15.07 ЮЗ 1 35 км 3/1 1500 м
[Cu hum Ci sp]
+20.7 +11.9 57 +24 +28 комфорт 1011.0 996.5 +16.9
07 15.07 С 1 35 км 5/1 1500 м
[Cu hum Cs]
+23.2 +11.4 47 +25 +33 комфорт 1011.4 997.0
08 15.07 В 2 35 км 6/1 1000 м
[Cu hum Cs]
+23.7 +11.9 48 +25 +35 комфорт 1011.1 996.8
09 15.07 В 3 35 км 9/1 1000 м
[Cu hum Cs]
+24.5 +12.3 47 +26 +36 жарко 1011.5 997.2
10 15.07 В 4 30 км 8/1 1000 м
[Cu hum Cs]
+24.6 +11.0 42 +26 +35 жарко 1011.2 996.9
11 15.07 В 3 30 км 9/1 1000 м
[Cu Sc Cs]
+26.1 +12.4 43 +28 +39 жарко 1010.9 996.7
12 15.07 В 3 30 км 9/1 1000 м
[Sc diur, vesp Cs]
+25.3 +11.9 43 +27 +38 жарко 1011.2 996.9
13 15.07 В 4 30 км 9/1 1000 м
[Cu hum Cs]
+25.3 +11.9 43 +27 +34 жарко 1011.0 996.7
14 15.07 В 3 н/о н/о +25.5 +11.0 40 +27 +27 жарко 1011.1 996.8
15 15.07 В 3 н/о н/о +26.0 +11.0 39 +27 +27 жарко 1011.0 996.7
16 15.07 ЮВ 3 н/о н/о +26.0 +11.4 40 +27 +27 жарко 1010.8 996.5
17 15.07 В 3 н/о н/о +25.5 +10.2 38 +26 +26 жарко 1010.9 996.6
18 15.07 В 2 30 км 6/1 1000 м
[Cu hum Ac cuf Ci sp]
+24.2 +11.1 44 +26 +26 жарко 1010.9 996.6 +26.5
19 15.07 СЗ 1 30 км 4/1 1000 м
[Cu hum Ac cuf Ci fib]
+22.1 +10.6 48 +24 +24 комфорт 1011.4 997.0
20 15.07 СЗ 2 30 км 4/0
[Ac trans Ci fib]
+20.6 +11.4 56 +23 +23 комфорт 1012.0 997.5
21 15.07 СВ 1 н/о н/о +20.1 +10.3 53 +23 +23 комфорт 1012.4 997.8
00 16.07 СВ 1 н/о н/о +19.3 +9.3 52 +21 +21 комфорт 1012.5 997.8
03 16.07 СВ 2 35 км ясно +19.9 +8.8 49 +22 +22 комфорт 1011.9 997.4
04 16.07 СВ 1 35 км ясно +18.4 +9.0 54 +20 +20 1012.3 997.7
05 16.07 С 1 40 км ясно +18.5 +10.6 60 +20 +22 1012.8 998.2
06 16.07 ЮВ 1 40 км 1/1 1500 м
[Cu hum]
+22.3 +9.8 45 +24 +28 комфорт 1012.5 998.1 +17.9
07 16.07 З 2 35 км 1/1 1500 м
[Cu hum]
+23.4 +10.0 43 +25 +32 комфорт 1012.8 998.4
08 16.07 З 2 35 км 1/1 1500 м
[Cu hum]
+25.7 +10.3 38 +27 +37 жарко 1012.7 998.4
09 16.07 СВ 2 35 км 1/1 1500 м
[Cu hum]
+26.7 +10.4 36 +27 +41 жарко 1012.4 998.2
10 16.07 СЗ 2 30 км 1/1 1500 м
[Cu hum]
+27.0 +10.4 35 +28 +43 жарко 1012.5 998.3
11 16.07 В 3 30 км 3/3 1500 м
[Cu hum]
+27.6 +10.2 34 +28 +39 жарко 1012.6 998.4
12 16.07 СВ 3 30 км 3/3 1500 м
[Cu hum]
+27.4 +10.1 34 +28 +38 жарко 1012.2 998.0
13 16.07 ЮВ 3 30 км 3/3 1500 м
[Sc diur, vesp]
+28.9 +10.0 31 +29 +38 жарко 1012.0 997.9
14 16.07 СВ 3 н/о н/о +29.3 +8.4 27 +29 +29 жарко 1011.8 997.6
15 16.07 СЗ 2 н/о н/о +29.6 +7.0 24 +28 +28 жарко 1011.5 997.3
16 16.07 СВ 3 н/о н/о +29.4 +6.8 24 +28 +28 жарко 1011.1 996.9
17 16.07 З 3 н/о н/о +27.7 +10.5 34 +28 +28 жарко 1011.4 997.2
18 16.07 З 1 30 км ясно +26.6 +10.7 37 +27 +28 жарко 1011.7 997.5 +29.5
19 16.07 С 1 35 км ясно +22.8 +11.5 49 +25 +25 комфорт 1012.3 997.9
20 16.07 С 2 35 км ясно +21.6 +10.0 48 +23 +23 комфорт 1013.2 998.7
21 16.07 С 1 н/о н/о +20.6 +9.6 49 +23 +23 комфорт 1013.7 999.1
00 17.07 С 2 н/о н/о +20.6 +10.5 52 +23 +23 комфорт 1014.0 999.4
03 17.07 С 2 35 км ясно +18.8 +11.3 62 +20 +20 1013.7 999.1
04 17.07 С 1 35 км ясно +18.0 +12.1 68 +19 +19 1013.8 999.2
05 17.07 штиль 0 35 км ясно +18.8 +13.2 70 +20 +21 1013.7 999.1
06 17.07 ЮЗ 1 35 км ясно +23.0 +14.3 58 +27 +31 душно 1013.6 999.2 +17.6
07 17.07 ЮЗ 1 35 км ясно +25.3 +14.5 51 +28 +37 жарко 1013.5 999.2
08 17.07 ЮЗ 2 35 км 1/1 1000 м
[Cu hum Ci fib]
+25.4 +14.6 51 +28 +38 жарко 1013.3 999.0
09 17.07 ЮЗ 2 35 км 1/1 1000 м
[Cu hum Ci fib]
+26.7 +14.7 48 +29 +43 жарко 1013.1 998.9
10 17.07 ЮЗ 2 35 км 3/1 1000 м
[Cu hum Ci fib]
+28.1 +14.2 43 +30 +45 жарко 1012.4 998.3
11 17.07 ЮЗ 2 35 км 5/1 1000 м
[Cu Sc Ci fib]
+29.0 +14.0 40 +31 +46 жарко 1012.0 997.9
12 17.07 ЮЗ 3 35 км 6/3 1000 м
[Cu Sc Ci fib]
+29.4 +12.7 36 +31 +40 жарко 1012.3 998.2
13 17.07 ЮЗ 2 30 км 8/3 1000 м
[Cu Sc Ci fib]
+29.0 +12.8 37 +30 +39 жарко 1011.7 997.6
14 17.07 ЮЗ 1 н/о н/о +29.0 +11.6 34 +30 +30 жарко 1011.5 997.3
15 17.07 Ю 2 н/о н/о +29.6 +13.4 37 +31 +31 жарко 1011.0 996.9
16 17.07 Ю 2 н/о н/о +29.2 +14.3 40 +31 +31 жарко 1010.5 996.3
17 17.07 Ю 2 н/о н/о +28.5 +15.1 44 +31 +31 душно 1010.5 996.3
18 17.07 штиль 0 30 км 6/0
[Ci sp]
+26.5 +17.2 57 +31 +31 душно 1010.6 996.4 +30.1
19 17.07 СВ 2 30 км 8/0
[Ci sp]
+24.5 +15.1 56 +27 +27 жарко 1010.8 996.5
20 17.07 СВ 3 30 км 6/0
[Ci sp]
+24.4 +13.3 50 +27 +27 жарко 1011.2 996.9
21 17.07 СВ 1 н/о н/о +23.2 +11.3 47 +25 +25 комфорт 1011.4 996.9
00 18.07 С 1 н/о н/о +21.2 +9.8 48 +23 +23 комфорт 1011.4 996.8
03 18.07 С 4 30 км 8/1 1500 м
[Cu hum Ac As Cs]
+21.7 +11.3 52 +24 +24 комфорт 1010.8 996.4
04 18.07 С 3 30 км 8/3 1500 м
[Cu Sc Ac As Cs]
+21.4 +11.4 53 +23 +23 комфорт 1011.1 996.7
05 18.07 С 6 25 км слаб. дождь 9/1 1000 м
[Frnb As op]
+21.2 +11.7 55 +23 +23 комфорт 1011.4 996.9
06 18.07 С 4 30 км слаб. дождь 10/0 1500 м
[As op]
+21.3 +14.1 63 +24 +24 комфорт 1011.5 997.1 +19.7 0.0
07 18.07 СВ 4 30 км в посл. час дождь 9/9 1500 м
[Sc]
+22.4 +14.3 60 +26 +26 жарко 1011.4 997.0
08 18.07 Ю 1 30 км 9/3 1500 м
[Sc Ac trans Cs]
+24.4 +14.7 55 +27 +32 жарко 1011.6 997.3
09 18.07 Ю 2 30 км {дождь} 8/3 1500 м
[Sc Ac trans Cs]
+27.1 +14.7 47 +30 +36 душно 1011.5 997.3
10 18.07 Ю 1 30 км 9/3 1500 м
[Cu Sc Ac trans Cs]
+28.5 +13.7 40 +30 +30 жарко 1011.8 997.6
11 18.07 Ю 2 30 км 9/3 1500 м
[Cu med, cong Ac trans Cs]
+29.0 +12.6 36 +30 +37 жарко 1011.5 997.4
12 18.07 Ю 2 30 км {дождь} 9/3 1500 м
[Sc diur, vesp Cs]
+29.5 +12.0 34 +30 +41 жарко 1011.3 997.2 0.0
13 18.07 ЮЗ 2 25 км 9/3 1500 м
[Sc diur, vesp Cs]
+29.5 +11.6 33 +30 +39 жарко 1011.0 996.9
14 18.07 ЮЗ 1 н/о н/о +28.4 +12.0 36 +29 +29 жарко 1011.5 997.3
15 18.07 ЮВ 1 н/о н/о +26.3 +15.7 52 +29 +29 жарко 1011.9 997.6
16 18.07 СВ 4 н/о н/о +21.9 +16.0 69 +26 +26 душно 1012.2 997.7
17 18.07 СВ 3 н/о н/о +22.9 +15.1 61 +27 +27 душно 1012.3 997.8
18 18.07 СВ 1 25 км 9/0
[Ac As Cs]
+22.6 +16.9 70 +27 +27 душно 1012.2 997.8 +30.0 6
19 18.07 С 1 25 км 9/9 1500 м
[Sc]
+21.6 +16.8 74 +26 +26 душно 1012.6 998.2
20 18.07 С 2 25 км 9/9 1500 м
[Sc]
+22.2 +16.5 70 +26 +26 душно 1013.1 998.7
21 18.07 С 1 н/о н/о +21.8 +15.0 65 +25 +25 комфорт 1013.7 999.1
00 19.07 С 1 н/о н/о +21.2 +12.9 59 +23 +23 комфорт 1014.3 999.7
03 19.07 С 3 25 км 1/1 1000 м
[Cu hum]
+22.1 +12.8 56 +25 +25 комфорт 1014.1 999.7
04 19.07 С 2 30 км 1/1 1000 м
[Cu hum Ac trans Ci fib]
+21.7 +12.7 57 +24 +24 комфорт 1014.4 999.9
05 19.07 С 1 30 км 3/1 1000 м
[Cu hum Ac trans Ci fib]
+21.2 +13.8 63 +24 +25 комфорт 1014.8 1000.3
06 19.07 ЮЗ 1 35 км 3/1 1000 м
[Cu hum Ac trans Ci fib]
+23.9 +14.8 57 +27 +30 жарко 1014.8 1000.4 +19.7
07 19.07 Ю 1 35 км 3/1 1000 м
[Cu hum Ci fib]
+25.5 +15.6 54 +29 +36 душно 1015.1 1000.8
08 19.07 Ю 1 35 км 3/0
[Ci fib]
+27.2 +16.2 51 +31 +43 душно 1015.3 1001.1
09 19.07 Ю 2 35 км 3/1 1000 м
[Cu med, cong Ci fib]
+27.8 +15.3 46 +30 +43 жарко 1015.4 1001.2
10 19.07 ЮЗ 2 35 км 3/1 1000 м
[Cu med, cong Ac trans Ci fib]
+29.1 +14.3 40 +31 +45 жарко 1015.4 1001.3
11 19.07 Ю 2 35 км 3/3 1000 м
[Cu med, cong Ci fib]
+29.8 +14.5 39 +32 +45 душно 1015.3 1001.2
12 19.07 ЮЗ 2 35 км 4/4 1000 м
[Cu Sc Ci sp]
+30.0 +14.0 38 +32 +42 жарко 1015.7 1001.6
13 19.07 ЮЗ 3 35 км 4/4 1000 м
[Cu Sc Ci sp]
+30.1 +14.7 39 +32 +40 жарко 1015.4 1001.3
14 19.07 З 3 н/о н/о +27.8 +15.2 46 +30 +30 жарко 1015.3 1001.0
15 19.07 СЗ 1 н/о н/о +27.7 +13.7 42 +30 +30 жарко 1015.5 1001.2
16 19.07 ЮЗ 2 н/о н/о +29.3 +13.6 38 +31 +31 жарко 1015.3 1001.1
17 19.07 ЮЗ 2 н/о н/о +28.6 +14.5 42 +31 +31 жарко 1015.5 1001.2
18 19.07 З 1 30 км 4/1 1500 м
[Cu hum Ci fib]
+27.0 +15.8 50 +30 +30 душно 1015.1 1000.9 +30.5
19 19.07 СВ 1 30 км 1/0
[Ci fib]
+23.5 +15.7 62 +27 +27 душно 1015.7 1001.3
20 19.07 С 1 30 км 1/0
[Ci fib]
+22.3 +14.7 62 +26 +26 жарко 1016.3 1001.8
21 19.07 С 2 н/о н/о +21.9 +13.9 60 +25 +25 комфорт 1017.1 1002.5
00 20.07 С 3 н/о н/о +23.2 +12.9 52 +26 +26 жарко 1017.1 1002.6
03 20.07 СВ 1 30 км ясно +20.3 +12.9 62 +23 +23 комфорт 1016.9 1002.3
04 20.07 С 2 30 км 1/0
[Ci fib]
+19.7 +13.1 66 +22 +22 комфорт 1017.1 1002.5
05 20.07 С 1 30 км ясно +20.2 +13.5 65 +23 +25 комфорт 1017.4 1002.8
06 20.07 ЮЗ 1 30 км ясно +23.8 +13.7 53 +26 +30 жарко 1017.5 1003.1 +19.0
07 20.07 ЮЗ 2 30 км ясно +25.9 +14.4 49 +28 +36 жарко 1017.7 1003.4
08 20.07 Ю 1 30 км ясно +26.9 +14.0 45 +29 +42 жарко 1017.8 1003.5
09 20.07 ЮЗ 1 25 км ясно +28.4 +13.8 41 +30 +48 жарко 1017.7 1003.5
10 20.07 ЮЗ 2 25 км 1/1 1500 м
[Cu hum]
+29.1 +13.7 39 +31 +46 жарко 1017.9 1003.7
11 20.07 Ю 2 25 км 1/1 1500 м
[Cu hum]
+30.0 +12.5 34 +31 +47 жарко 1017.9 1003.8
12 20.07 З 3 25 км 1/1 1500 м
[Cu hum]
+29.9 +12.8 35 +31 +44 жарко 1017.8 1003.7
13 20.07 З 3 25 км 1/1 1500 м
[Cu hum Ci fib]
+29.1 +14.7 41 +31 +42 жарко 1017.8 1003.6
14 20.07 З 2 н/о н/о +28.9 +17.2 49 +33 +33 очень
душно
1018.0 1003.7
15 20.07 З 2 н/о н/о +29.9 +14.9 40 +32 +32 жарко 1017.7 1003.5
17 20.07 З 2 н/о н/о +28.4 +15.7 46 +31 +31 душно 1017.5 1003.2
18 20.07 З 1 25 км 3/0
[Ci sp]
+27.4 +16.5 51 +31 +31 душно 1017.4 1003.2 +30.5
19 20.07 В 1 25 км 1/0
[Ci sp]
+23.7 +15.4 60 +27 +27 жарко 1017.9 1003.5
20 20.07 С 1 25 км 1/0
[Ci sp]
+22.3 +14.1 60 +26 +26 жарко 1018.5 1004.0
21 20.07 С 2 н/о н/о +23.2 +14.3 57 +27 +27 душно 1018.9 1004.3
00 21.07 СВ 2 н/о н/о +22.0 +13.4 58 +25 +25 комфорт 1019.5 1004.9
03 21.07 СВ 1 25 км ясно +20.9 +14.0 65 +25 +25 комфорт 1018.7 1004.1
05 21.07 С 1 25 км 5/0
[Ci fib]
+22.0 +15.4 66 +26 +27 душно 1032.5 1017.8

 

Местоположение метеостанции Риека (Хорватия): широта 45.33 долгота 14.45 высота над уровнем моря 125 м.

В архиве по умолчанию представлена погода в Риеке за последнюю неделю. Архивные данные за месяц целиком и за предыдущие месяцы, начиная с января 2011 года, Вы можете получить, выбрав интересующий диапазон дат из раскрывающегося списка и нажав кнопку "Ввод!".


*Определитесь, кто Вы:
робот инопланетянин человек

Внимание! Время в таблицах - всемирное. Для получения местного времени необходимо прибавить поправку, которая равна 1 ч.

Смотрите также архив погоды в соседних городах и на ближайших метеорологических станциях:

Погода в Риека аэропорту (Хорватия) (16 км)
Погода в Парке (Хорватия) (33 км)
Погода в Пазине (Хорватия) (42 км)
Погода в Кочевье (Словения) (47 км)
Погода в Сене (Хорватия) (51 км)
Погода в Постойнской (Словения) (53 км)
Погода в Чрномеле (Словения) (61 км)
Погода в Огулине (Хорватия) (61 км)
Погода в Пуле (Хорватия) (63 км)
Погода в Триесте (Италия) (65 км)

Пояснения к столбцам:

Ветер - указаны скорость ветра в м/с - средняя за 10 мин, порывы в срок и между сроками (в фигурных скобках) и направление, откуда дует ветер: С - северный, СВ - северо-восточный, В - восточный, ЮВ - юго-восточный, Ю - южный, ЮЗ - юго-западный, З - западный, СЗ - северо-западный.
Видимость - горизонтальная дальность видимости в метрах или километрах. При видимости от 1 до 10 км при отсутствии осадков обычно наблюдается дымка, при ухудшении видимости до 1 км и менее - туман. В сухую погоду видимость может ухудшаться дымом, пылью или мглою.
Явления - указаны атмосферные явления, наблюдавшиеся в срок или в последний час перед сроком; фигурными скобками обозначены явления, наблюдавшиеся между сроками (за 1-3 часа до срока); квадратными скобками обозначены град или гололедные отложения с указанием их диаметра в мм.
Облачность - указаны через наклонную черту общая и нижняя облачность в баллах и высота нижней границы облаков в метрах; квадратными скобками обозначены формы облаков: Ci - перистые, Cs - перисто-слоистые, Cc - перисто-кучевые, Ac - высококучевые, As - высокослоистые, Sc - слоисто-кучевые, Ns - слоисто-дождевые, Cu - кучевые, Cb - кучево-дождевые. Подробнее классификацию облаков см. в Атласе облаков (PDF).
T - Температура воздуха - температура, измеренная на высоте 2 м над землей.
Td - Температура точки росы - температура, при понижении до которой содержащийся в воздухе водяной пар достигнет насыщения.
f - Относительная влажность воздуха - влажноcть воздуха, измеренная на высоте 2 м над землей.
Te - Эффективная температура - температура, которую ощущает одетый по сезону человек в тени. Характеристика душности погоды. При расчете учитывается влияние влажности воздуха и скорости ветра на теплоощущения человека.
Tes - Эффективная температура на солнце - температура, которую ощущает человек, с поправкой на солнечный нагрев. Характеристика знойности погоды. Зависит от высоты солнца над горизонтом, облачности и скорости ветра. Ночью, в пасмурную погоду, а также при ветре 12 м/с и более поправка равна нулю.
P - Атмосферное давление - приведенное к уровню моря атмосферное давление.
Po - Атмосферное давление - измеренное на уровне метеостанции атмосферное давление.
Tmin - Минимальная температура - минимум температуры воздуха на высоте 2 м над землей.
Tmax - Максимальная температура - максимум температуры воздуха на высоте 2 м над землей.
R - Количество осадков - Количество выпавших осадков за период времени, мм. При наведении курсора мыши на число - период времени, за который выпало указанное количество осадков.
R24 - Количество осадков - Количество выпавших осадков за 24 часа, мм.
S - Снежный покров - Высота снежного покрова, см. При наведении курсора мыши на число - состояние снежного покрова и степень покрытия местности в баллах.